• MPC Preparation (Info)

  • MPEC 2013-D26 : 2013 CZ133

    The following Minor Planet Electronic Circular may be linked-to from your own Web pages, but must not otherwise be redistributed electronically.

    A form allowing access to any MPEC is at the bottom of this page.


    Read MPEC 2013-D25 Read MPEC 2013-D27


    M.P.E.C. 2013-D26                                Issued 2013 Feb. 18, 16:55 UT
    
         The Minor Planet Electronic Circulars contain information on unusual
             minor planets and routine data on comets.  They are published
       on behalf of Commission 20 of the International Astronomical Union by the
              Minor Planet Center, Smithsonian Astrophysical Observatory,
                              Cambridge, MA 02138, U.S.A.
    
                 Prepared using the Tamkin Foundation Computer Network
    
                                  MPC@CFA.HARVARD.EDU
                URL https://www.minorplanetcenter.net/    ISSN 1523-6714
    
                                      2013 CZ133
    
    Observations:
         K13CD3Z* C2013 02 15.07239 10 22 51.65 +18 30 36.5          20.7 RcED026J04
         K13CD3Z  C2013 02 15.08396 10 22 51.74 +18 30 15.3          19.9 RcED026J04
         K13CD3Z  C2013 02 15.10595 10 22 52.04 +18 29 37.5          20.4 RcED026J04
         K13CD3Z  C2013 02 15.11753 10 22 52.21 +18 29 17.6          20.7 RcED026J04
         K13CD3Z HC2013 02 16.21848 10 23 31.46 +17 57 06.3          19.6 RoED026291
         K13CD3Z HC2013 02 16.22153 10 23 31.51 +17 57 01.1          19.9 RoED026291
         K13CD3Z HC2013 02 16.22456 10 23 31.56 +17 56 56.0          20.0 RoED026291
         K13CD3Z KC2013 02 17.19778310 24 01.88 +17 27 59.2          20.3 VuED026H21
         K13CD3Z KC2013 02 17.20693010 24 02.04 +17 27 43.0          20.3 VuED026H21
         K13CD3Z KC2013 02 17.21592710 24 02.14 +17 27 26.9          20.0 VuED026H21
         K13CD3Z HC2013 02 18.36080 10 24 36.42 +16 53 03.0          19.9 RoED026291
         K13CD3Z HC2013 02 18.36224 10 24 36.41 +16 53 00.3          19.9 RoED026291
         K13CD3Z HC2013 02 18.36365 10 24 36.45 +16 52 58.1          20.1 RoED026291
    
    Observer details:
    291 LPL/Spacewatch II.  Observer T. H. Bressi.  1.8-m f/2.7 reflector + CCD.
    H21 Astronomical Research Observatory, Westfield.  Observer R. Holmes.
        Measurers T. Vorobjov, L. Buzzi, S. Foglia, T. Linder.  0.76-m f/3.0
        astrograph + CCD.
    J04 ESA Optical Ground Station, Tenerife.  Observer P. Ruiz.  Measurers
        M. Busch, F. Hormuth, A. Knoefel, D. Koschny.  1.0-m f/4.4 reflector
        + CCD.
    
    Orbital elements:
    2013 CZ133                                               Earth MOID = 0.1588 AU
    Epoch 2013 Apr. 18.0 TT = JDT 2456400.5                 MPC
    M  26.88298              (2000.0)            P               Q
    n   0.47401511     Peri.  168.71254     -0.88052879     -0.47355250
    a   1.6290757      Node   342.97681     +0.42926805     -0.77843371
    e   0.2953125      Incl.    4.00014     +0.20099252     -0.41205459
    P   2.08           H   23.6           G   0.15           U   7
    Residuals in seconds of arc
    130215 J04  0.3+  0.5+    130216 291  0.0   0.1+    130218 291  0.2+  0.1-
    130215 J04  0.4-  0.7-    130216 291  0.0   0.2+    130218 291  0.2-  0.1-
    130215 J04  0.1-  0.2-    130217 H21  0.3-  0.2-    130218 291  0.1+  0.3+
    130215 J04  0.2+  0.2+    130217 H21  0.1+  0.2-
    130216 291  0.1+  0.1+    130217 H21  0.3-  0.5-
    
    Ephemeris:
    2013 CZ133               a,e,i = 1.63, 0.30, 4                   q = 1.1480
    Date    TT    R. A. (2000) Decl.     Delta      r     Elong.  Phase     V
    2013 01 19    09 57 26.3 +27 36 16   0.2167  1.1814   153.2    22.1    21.7
    ...
    2013 02 03    10 14 25.7 +23 33 44   0.1790  1.1577   162.6    14.8    21.0
    ...
    2013 02 11    10 20 26.3 +20 23 23   0.1668  1.1508   168.2    10.1    20.7
    ...
    2013 02 17    10 23 54.3 +17 34 16   0.1614  1.1483   172.3     6.6    20.4
    2013 02 18    10 24 25.8 +17 04 15   0.1608  1.1481   173.0     6.0    20.4
    2013 02 19    10 24 56.6 +16 33 48   0.1603  1.1480   173.6     5.5    20.4
    ...
    2013 02 25    10 27 54.4 +13 24 10   0.1592  1.1487   175.6     3.8    20.3
    ...
    2013 03 05    10 31 56.6 +09 05 28   0.1629  1.1533   171.9     7.0    20.5
    ...
    2013 03 20    10 42 04.2 +01 47 38   0.1855  1.1729   161.0    16.0    21.2
    
    A. U. Tomatic                (C) Copyright 2013 MPC           M.P.E.C. 2013-D26
    

    Read MPEC 2013-D25 Read MPEC 2013-D27


    MPEC number:

    Enter an MPEC number in one of the following forms:

    • 1997-B01 (the full form)
    • J97B01 (the packed version of the full form)
    • B01 (the abbreviated form)